Home > Time Zones > World Clock > Weather > Iran > Gorgan > Past weeks

Flag for Iran Weather past 2 weeks in Gorgan, Iran

Now
48 °F

Broken clouds.


Feels Like: 45 °F
Forecast: 36 / 59 °F
Wind: 7 mph from Southwest

Location: Gorgan Airport

Current Time: Mar 6, 2015 at 4:07:19 PM

Latest Report: Mar 6, 2015 at 3:30 PM


Visibility: N/A

Pressure: 30.54 "Hg

Humidity: 82%

Dew point: 43 °F

Location of GorganLocation

Historic Weather in Gorgan — Graph

°F

Gorgan temperature yesterday

Maximum temperature yesterday: 61 °F (at 1:30 PM)
Minimum temperature yesterday: 36 °F (at 6:30 AM)
Average temperature yesterday: 50 °F

Past Weeks' High & Low Weather Summary

 TemperatureHumidityPressure
High63 °F (Mar 3, 2:30 PM)100% (Feb 20, 4:30 AM)30.57 "Hg (Feb 20, 4:30 AM)
Low30 °F (Feb 28, 5:30 AM)41% (Feb 24, 2:30 PM)29.83 "Hg (Feb 20, 1:30 PM)
Average47 °F82%30.15 "Hg
* Reported Feb 19 2:30 PM — Mar 6 2:30 PM, Gorgan, Weather by CustomWeather, © 2015

Note: Actual official high and low records may vary slightly from our data, if they occured in-between our weather recording intervals... More about our weather records

Advertising

Gorgan weather history for previous 24 hours

 ConditionsComfort  
Time TempWeatherWind HumidityBarometerVisibility
2:30 PM
Fri, Mar 6
48 °FBroken clouds.12 mph76%30.54 "HgN/A
1:30 PM46 °FBroken clouds.12 mph82%30.54 "HgN/A
12:30 PM45 °FMostly cloudy.12 mph87%30.57 "HgN/A
11:30 AM43 °FRain. Mostly cloudy.18 mph93%30.57 "Hg4 mi
10:30 AM43 °FRain. Mostly cloudy.18 mph93%30.57 "Hg4 mi
9:30 AM41 °FRain. Mostly cloudy.14 mph93%30.54 "Hg4 mi
8:30 AM41 °FRain. Fog.18 mph93%30.51 "Hg3 mi
7:30 AM41 °FRain. Fog.23 mph93%30.48 "Hg2 mi
6:30 AM43 °FRain. Mostly cloudy.18 mph93%30.42 "Hg2 mi
5:30 AM45 °FRain. Mostly cloudy.23 mph93%30.36 "Hg2 mi
4:30 AM45 °FRain. Mostly cloudy.35 mph87%30.30 "Hg2 mi
3:30 AM45 °FLight rain. Mostly cloudy.25 mph87%30.27 "Hg2 mi
2:30 AM46 °FLight rain. Mostly cloudy.25 mph87%30.24 "Hg3 mi
1:30 AM46 °FLight rain. Mostly cloudy.35 mph93%30.21 "Hg2 mi
1:00 AM46 °FRain. Mostly cloudy.32 mph93%30.21 "Hg2 mi
12:30 AM48 °FRain. Mostly cloudy.18 mph94%30.21 "Hg2 mi
12:00 AM50 °FRain. Mostly cloudy.21 mph94%30.18 "Hg2 mi
11:30 PM
Thu, Mar 5
48 °FRain. Mostly cloudy.18 mph100%30.18 "Hg2 mi
11:00 PM50 °FRain. Mostly cloudy.21 mph94%30.18 "Hg2 mi
10:30 PM50 °FRain. Mostly cloudy.23 mph94%30.18 "Hg2 mi
10:00 PM50 °FRain. Mostly cloudy.23 mph94%30.18 "Hg2 mi
9:30 PM50 °FRain. Mostly cloudy.21 mph94%30.15 "Hg2 mi
9:00 PM52 °FRain. Mostly cloudy.16 mph94%30.15 "Hg3 mi
8:30 PM52 °FRain. Mostly cloudy.16 mph94%30.15 "Hg3 mi
8:00 PM52 °FLight rain. Mostly cloudy.18 mph88%30.12 "Hg3 mi
7:30 PM52 °FFog.18 mph88%30.12 "Hg3 mi
6:30 PM54 °FFog.16 mph82%30.09 "Hg3 mi
5:30 PM55 °FBroken clouds.16 mph77%30.07 "Hg3 mi
4:30 PM59 °FScattered clouds.5 mph59%30.04 "Hg4 mi
Weather by CustomWeather, © 2015

See weather overviewHow to use our weather pages